When you browse on this site, cookies collect data to enhance your experience and personalize the content and advertising you see.
Visit our Privacy Policy to learn more. By continuing to use the site, you agree to this use of cookies and data.
  • In United Kingdom
  • List of Countries
  • For 7 days
  • Water Temperature
  • Weather Map
  • Weather Widgets
  • user-avatar
    Login

    Hourly Weather Ujfeherto

    Today, 26 January, Sunday

    Time Temperature Precipitation Wind Pressure Humidity
    00:00 -1°C° 0 mm 0 mps 757 mmHg 78%
    01:00 -1°C° 0 mm 0 mps 757 mmHg 78%
    02:00 0°C° 0 mm 1 mps 757 mmHg 79%
    03:00 0°C° 0 mm 1 mps 757 mmHg 80%
    04:00 0°C° 0 mm 1 mps 757 mmHg 81%
    05:00 0°C° 0 mm 1 mps 757 mmHg 81%
    06:00 0°C° 0 mm 1 mps 757 mmHg 82%
    07:00 0°C° 0 mm 1 mps 757 mmHg 80%
    08:00 +1°C° 0 mm 1 mps 757 mmHg 77%
    09:00 +2°C° 0 mm 1 mps 757 mmHg 74%
    10:00 +3°C° 0 mm 1 mps 757 mmHg 70%
    11:00 +3°C° 0 mm 1 mps 756 mmHg 71%
    12:00 +2°C° 0 mm 0 mps 756 mmHg 71%
    13:00 +2°C° 0 mm 0 mps 756 mmHg 71%
    14:00 +2°C° 0 mm 0 mps 755 mmHg 73%
    15:00 +2°C° 0 mm 0 mps 755 mmHg 74%
    16:00 +2°C° 0 mm 0 mps 755 mmHg 76%
    17:00 +2°C° 0 mm 0 mps 755 mmHg 76%
    18:00 +2°C° 0 mm 0 mps 755 mmHg 77%
    19:00 +2°C° 0 mm 1 mps 755 mmHg 77%
    20:00 +2°C° 0 mm 1 mps 755 mmHg 78%
    21:00 +2°C° 0 mm 1 mps 755 mmHg 79%
    22:00 +2°C° 0 mm 1 mps 754 mmHg 79%
    23:00 +2°C° 0 mm 1 mps 754 mmHg 80%

    Tomorrow, 27 January, Monday

    Time Temperature Precipitation Wind Pressure Humidity
    00:00 +2°C° 0 mm 1 mps 754 mmHg 80%
    01:00 +2°C° 0 mm 1 mps 754 mmHg 80%
    02:00 +2°C° 0 mm 1 mps 753 mmHg 81%
    03:00 +2°C° 0 mm 1 mps 753 mmHg 82%
    04:00 +2°C° 0 mm 1 mps 753 mmHg 83%
    05:00 +2°C° 0 mm 1 mps 753 mmHg 84%
    06:00 +2°C° 0 mm 1 mps 752 mmHg 85%
    07:00 +2°C° 0 mm 1 mps 752 mmHg 85%
    08:00 +3°C° 0 mm 1 mps 752 mmHg 84%
    09:00 +3°C° 0 mm 1 mps 752 mmHg 83%
    10:00 +3°C° 0 mm 1 mps 752 mmHg 82%
    11:00 +4°C° 0 mm 1 mps 752 mmHg 83%
    12:00 +4°C° 0 mm 1 mps 752 mmHg 84%
    13:00 +3°C° 0 mm 0 mps 751 mmHg 84%
    14:00 +2°C° 0.1 mm 0 mps 751 mmHg 86%
    15:00 +2°C° 0.1 mm 0 mps 751 mmHg 87%
    16:00 +2°C° 0.1 mm 0 mps 751 mmHg 88%
    17:00 +2°C° 0 mm 0 mps 751 mmHg 88%
    18:00 +1°C° 0 mm 0 mps 751 mmHg 88%
    19:00 +2°C° 0 mm 1 mps 751 mmHg 88%
    20:00 +2°C° 0 mm 1 mps 751 mmHg 89%
    21:00 +2°C° 0 mm 1 mps 751 mmHg 89%
    22:00 +2°C° 0 mm 1 mps 751 mmHg 89%
    23:00 +1°C° 0 mm 2 mps 751 mmHg 90%

    Day after tomorrow, 28 January, Tuesday

    Time Temperature Precipitation Wind Pressure Humidity
    00:00 -1°C° 0 mm 2 mps 750 mmHg 91%
    01:00 -1°C° 0 mm 2 mps 750 mmHg 92%
    02:00 -1°C° 0 mm 2 mps 750 mmHg 93%
    03:00 -1°C° 0 mm 2 mps 750 mmHg 94%
    04:00 -1°C° 0 mm 2 mps 749 mmHg 94%
    05:00 -1°C° 0 mm 2 mps 749 mmHg 95%
    06:00 -1°C° 0 mm 2 mps 749 mmHg 95%
    07:00 -1°C° 0 mm 2 mps 748 mmHg 95%
    08:00 0°C° 0 mm 3 mps 748 mmHg 93%
    09:00 +1°C° 0 mm 3 mps 748 mmHg 92%
    10:00 +1°C° 0 mm 4 mps 747 mmHg 90%
    11:00 +1°C° 0.1 mm 4 mps 746 mmHg 90%
    12:00 +2°C° 0.1 mm 5 mps 745 mmHg 90%
    13:00 +2°C° 0.1 mm 5 mps 744 mmHg 90%
    14:00 +3°C° 1.5 mm 6 mps 744 mmHg 91%
    15:00 +3°C° 1.5 mm 6 mps 743 mmHg 93%
    16:00 +3°C° 1.5 mm 7 mps 742 mmHg 94%
    17:00 +3°C° 1.3 mm 7 mps 742 mmHg 93%
    18:00 +3°C° 1.3 mm 6 mps 741 mmHg 92%
    19:00 +3°C° 1.3 mm 6 mps 740 mmHg 91%
    20:00 +3°C° 1.7 mm 6 mps 740 mmHg 91%
    21:00 +3°C° 1.7 mm 6 mps 739 mmHg 91%
    22:00 +4°C° 1.7 mm 7 mps 738 mmHg 91%
    23:00 +3°C° 0.1 mm 6 mps 738 mmHg 91%

    29 January, Wednesday

    Time Temperature Precipitation Wind Pressure Humidity
    00:00 +2°C° 0.1 mm 6 mps 738 mmHg 90%
    01:00 +2°C° 0.1 mm 6 mps 737 mmHg 90%
    02:00 +1°C° 0.3 mm 6 mps 738 mmHg 87%
    03:00 +1°C° 0.3 mm 6 mps 739 mmHg 85%
    04:00 +1°C° 0.3 mm 6 mps 739 mmHg 83%
    05:00 -1°C° 0.1 mm 6 mps 740 mmHg 79%
    06:00 -1°C° 0.1 mm 6 mps 741 mmHg 75%
    07:00 -1°C° 0.1 mm 6 mps 742 mmHg 71%
    08:00 -1°C° 0 mm 7 mps 742 mmHg 70%
    09:00 0°C° 0 mm 7 mps 743 mmHg 69%
    10:00 +1°C° 0 mm 8 mps 743 mmHg 68%
    11:00 +1°C° 0 mm 8 mps 743 mmHg 66%
    12:00 +2°C° 0 mm 8 mps 743 mmHg 64%
    13:00 +4°C° 0 mm 8 mps 743 mmHg 62%
    14:00 +3°C° 0 mm 7 mps 743 mmHg 64%
    15:00 +3°C° 0 mm 6 mps 743 mmHg 66%
    16:00 +2°C° 0 mm 6 mps 743 mmHg 68%
    17:00 +2°C° 0 mm 6 mps 743 mmHg 71%
    18:00 +1°C° 0 mm 6 mps 744 mmHg 74%
    19:00 -1°C° 0 mm 6 mps 744 mmHg 77%
    20:00 -1°C° 0 mm 6 mps 744 mmHg 77%
    21:00 -1°C° 0 mm 6 mps 744 mmHg 78%
    22:00 -1°C° 0 mm 6 mps 745 mmHg 79%
    23:00 -2°C° 0 mm 6 mps 745 mmHg 82%

    30 January, Thursday

    Time Temperature Precipitation Wind Pressure Humidity
    00:00 -1°C° 0 mm 5 mps 745 mmHg 84%
    01:00 -1°C° 0 mm 4 mps 745 mmHg 87%
    02:00 -1°C° 0 mm 5 mps 746 mmHg 84%
    03:00 -1°C° 0 mm 5 mps 746 mmHg 82%
    04:00 -2°C° 0 mm 6 mps 746 mmHg 80%
    05:00 -1°C° 0 mm 5 mps 747 mmHg 80%
    06:00 -1°C° 0 mm 5 mps 747 mmHg 80%
    07:00 -1°C° 0 mm 4 mps 748 mmHg 80%
    08:00 0°C° 0 mm 4 mps 748 mmHg 77%
    09:00 +1°C° 0 mm 4 mps 749 mmHg 74%
    10:00 +1°C° 0 mm 4 mps 749 mmHg 71%
    11:00 +3°C° 0 mm 4 mps 749 mmHg 68%
    12:00 +4°C° 0 mm 4 mps 749 mmHg 65%
    13:00 +4°C° 0 mm 4 mps 750 mmHg 62%
    14:00 +3°C° 0 mm 4 mps 750 mmHg 65%
    15:00 +3°C° 0 mm 3 mps 750 mmHg 67%
    16:00 +2°C° 0 mm 3 mps 750 mmHg 70%
    17:00 +1°C° 0 mm 3 mps 751 mmHg 73%
    18:00 +1°C° 0 mm 3 mps 751 mmHg 76%
    19:00 +1°C° 0 mm 2 mps 752 mmHg 80%
    20:00 -1°C° 0 mm 3 mps 752 mmHg 81%
    21:00 -1°C° 0 mm 3 mps 752 mmHg 83%
    22:00 -1°C° 0 mm 3 mps 752 mmHg 85%
    23:00 -1°C° 0 mm 3 mps 752 mmHg 85%

    31 January, Friday

    Time Temperature Precipitation Wind Pressure Humidity
    00:00 -1°C° 0 mm 3 mps 752 mmHg 85%
    01:00 -1°C° 0 mm 3 mps 752 mmHg 85%
    02:00 -1°C° 0 mm 3 mps 752 mmHg 84%
    03:00 -2°C° 0 mm 4 mps 752 mmHg 82%
    04:00 -1°C° 0 mm 4 mps 752 mmHg 81%
    05:00 -1°C° 0 mm 4 mps 752 mmHg 80%
    06:00 -2°C° 0 mm 4 mps 752 mmHg 79%
    07:00 -2°C° 0 mm 4 mps 752 mmHg 78%
    08:00 -1°C° 0 mm 4 mps 752 mmHg 75%
    09:00 0°C° 0 mm 5 mps 752 mmHg 72%
    10:00 0°C° 0 mm 5 mps 752 mmHg 70%
    11:00 +1°C° 0 mm 4 mps 752 mmHg 68%
    12:00 +1°C° 0 mm 4 mps 751 mmHg 67%
    13:00 +3°C° 0 mm 4 mps 751 mmHg 66%
    14:00 +3°C° 0 mm 4 mps 751 mmHg 69%
    15:00 +2°C° 0 mm 3 mps 751 mmHg 73%
    16:00 +2°C° 0 mm 3 mps 751 mmHg 76%
    17:00 +3°C° 0 mm 2 mps 751 mmHg 78%
    18:00 +3°C° 0 mm 2 mps 752 mmHg 80%
    19:00 +2°C° 0 mm 2 mps 752 mmHg 81%
    20:00 +2°C° 0 mm 2 mps 752 mmHg 82%
    21:00 +2°C° 0 mm 2 mps 752 mmHg 83%
    22:00 +2°C° 0 mm 2 mps 752 mmHg 84%
    23:00 +3°C° 0 mm 1 mps 752 mmHg 84%
    Show more